owner,sensor,date,latitude,longitude,vertical_datum,wind_speed,wind_to_direction,wind_speed_of_gust,qcFlag 
TCOON,ioos:station:TCOON:057:1,2008-04-01T00:00:00Z,28.4460,-96.3961,0.0,6.6,125.0,7.2,'11111222,11111222,11111222' 
TCOON,ioos:station:TCOON:057:1,2008-04-01T01:00:00Z,28.4460,-96.3961,0.0,7.1,133.0,8.2,'11111222,11111222,11111222' 
TCOON,ioos:station:TCOON:057:1,2008-04-01T03:00:00Z,28.4460,-96.3961,0.0,6.8,146.0,8.2,'11111222,11111222,11111222' 
TCOON,ioos:station:TCOON:057:1,2008-04-01T04:00:00Z,28.4460,-96.3961,0.0,6.7,155.0,7.8,'11111222,11111222,11111222' 
TCOON,ioos:station:TCOON:057:1,2008-04-01T05:00:00Z,28.4460,-96.3961,0.0,7.3,151.0,8.8,'11111222,11111222,11111222' 
TCOON,ioos:station:TCOON:057:1,2008-04-01T06:00:00Z,28.4460,-96.3961,0.0,6.4,165.0,7.5,'11111222,11111222,11111222' 
TCOON,ioos:station:TCOON:057:1,2008-04-01T07:00:00Z,28.4460,-96.3961,0.0,5.5,162.0,6.6,'11111222,11111222,11111222' 
TCOON,ioos:station:TCOON:057:1,2008-04-01T08:00:00Z,28.4460,-96.3961,0.0,4.5,171.0,5.2,'11111222,11111222,11111222' 
TCOON,ioos:station:TCOON:057:1,2008-04-01T09:00:00Z,28.4460,-96.3961,0.0,5.5,168.0,6.5,'11111222,11111222,11111222' 
TCOON,ioos:station:TCOON:057:1,2008-04-01T10:00:00Z,28.4460,-96.3961,0.0,3.6,163.0,4.8,'11111222,11111222,11111222' 
TCOON,ioos:station:TCOON:057:1,2008-04-01T11:00:00Z,28.4460,-96.3961,0.0,4.8,174.0,5.9,'11111222,11111222,11111222' 
TCOON,ioos:station:TCOON:057:1,2008-04-01T12:00:00Z,28.4460,-96.3961,0.0,4.4,179.0,5.1,'11111222,11111222,11111222' 
TCOON,ioos:station:TCOON:057:1,2008-04-01T13:00:00Z,28.4460,-96.3961,0.0,5.1,190.0,6.0,'11111222,11111222,11111222' 
TCOON,ioos:station:TCOON:057:1,2008-04-01T14:00:00Z,28.4460,-96.3961,0.0,3.1,135.0,3.7,'11111222,11111222,11111222' 
TCOON,ioos:station:TCOON:057:1,2008-04-01T15:00:00Z,28.4460,-96.3961,0.0,5.3,173.0,5.9,'11111222,11111222,11111222' 
TCOON,ioos:station:TCOON:057:1,2008-04-01T16:00:00Z,28.4460,-96.3961,0.0,5.1,156.0,6.5,'11111222,11111222,11111222' 
TCOON,ioos:station:TCOON:057:1,2008-04-01T17:00:00Z,28.4460,-96.3961,0.0,6.2,158.0,7.2,'11111222,11111222,11111222' 
TCOON,ioos:station:TCOON:057:1,2008-04-01T18:00:00Z,28.4460,-96.3961,0.0,5.9,150.0,6.5,'11111222,11111222,11111222' 
TCOON,ioos:station:TCOON:057:1,2008-04-01T19:00:00Z,28.4460,-96.3961,0.0,4.9,144.0,6.0,'11111222,11111222,11111222' 
TCOON,ioos:station:TCOON:057:1,2008-04-01T20:00:00Z,28.4460,-96.3961,0.0,5.0,128.0,5.4,'11111222,11111222,11111222' 
TCOON,ioos:station:TCOON:057:1,2008-04-01T21:00:00Z,28.4460,-96.3961,0.0,5.0,133.0,5.7,'11111222,11111222,11111222' 
TCOON,ioos:station:TCOON:057:1,2008-04-01T23:00:00Z,28.4460,-96.3961,0.0,5.6,123.0,6.2,'11111222,11111222,11111222' 
TCOON,ioos:station:TCOON:057:1,2008-04-02T00:00:00Z,28.4460,-96.3961,0.0,4.2,101.0,4.7,'11111222,11111222,11111222' 
TCOON,ioos:station:TCOON:057:1,2008-04-02T01:00:00Z,28.4460,-96.3961,0.0,3.4,95.0,3.9,'11111222,11111222,11111222' 
TCOON,ioos:station:TCOON:057:1,2008-04-02T02:00:00Z,28.4460,-96.3961,0.0,3.9,98.0,4.6,'11111222,11111222,11111222' 
TCOON,ioos:station:TCOON:057:1,2008-04-02T03:00:00Z,28.4460,-96.3961,0.0,3.9,102.0,4.4,'11111222,11111222,11111222' 
TCOON,ioos:station:TCOON:057:1,2008-04-02T04:00:00Z,28.4460,-96.3961,0.0,3.5,103.0,4.0,'11111222,11111222,11111222' 
TCOON,ioos:station:TCOON:057:1,2008-04-02T05:00:00Z,28.4460,-96.3961,0.0,3.0,84.0,3.5,'11111222,11111222,11111222' 
TCOON,ioos:station:TCOON:057:1,2008-04-02T06:00:00Z,28.4460,-96.3961,0.0,2.8,88.0,3.3,'11111222,11111222,11111222' 
TCOON,ioos:station:TCOON:057:1,2008-04-02T07:00:00Z,28.4460,-96.3961,0.0,2.6,94.0,3.3,'11111222,11111222,11111222' 
TCOON,ioos:station:TCOON:057:1,2008-04-02T08:00:00Z,28.4460,-96.3961,0.0,3.2,76.0,4.0,'11111222,11111222,11111222' 
TCOON,ioos:station:TCOON:057:1,2008-04-02T09:00:00Z,28.4460,-96.3961,0.0,4.2,89.0,5.0,'11111222,11111222,11111222' 
TCOON,ioos:station:TCOON:057:1,2008-04-02T10:00:00Z,28.4460,-96.3961,0.0,4.9,102.0,5.8,'11111222,11111222,11111222' 
TCOON,ioos:station:TCOON:057:1,2008-04-02T11:00:00Z,28.4460,-96.3961,0.0,4.1,87.0,5.0,'11111222,11111222,11111222' 
TCOON,ioos:station:TCOON:057:1,2008-04-02T12:00:00Z,28.4460,-96.3961,0.0,4.8,84.0,5.3,'11111222,11111222,11111222' 
TCOON,ioos:station:TCOON:057:1,2008-04-02T13:00:00Z,28.4460,-96.3961,0.0,5.7,87.0,6.2,'11111222,11111222,11111222' 
TCOON,ioos:station:TCOON:057:1,2008-04-02T14:00:00Z,28.4460,-96.3961,0.0,5.7,107.0,6.3,'11111222,11111222,11111222' 
TCOON,ioos:station:TCOON:057:1,2008-04-02T15:00:00Z,28.4460,-96.3961,0.0,6.2,117.0,7.4,'11111222,11111222,11111222' 
TCOON,ioos:station:TCOON:057:1,2008-04-02T16:00:00Z,28.4460,-96.3961,0.0,4.4,114.0,4.8,'11111222,11111222,11111222' 
TCOON,ioos:station:TCOON:057:1,2008-04-02T17:00:00Z,28.4460,-96.3961,0.0,4.7,119.0,5.3,'11111222,11111222,11111222' 
TCOON,ioos:station:TCOON:057:1,2008-04-02T18:00:00Z,28.4460,-96.3961,0.0,5.2,124.0,5.8,'11111222,11111222,11111222' 
TCOON,ioos:station:TCOON:057:1,2008-04-02T19:00:00Z,28.4460,-96.3961,0.0,6.7,135.0,7.6,'11111222,11111222,11111222' 
TCOON,ioos:station:TCOON:057:1,2008-04-02T20:00:00Z,28.4460,-96.3961,0.0,6.4,130.0,7.1,'11111222,11111222,11111222' 
TCOON,ioos:station:TCOON:057:1,2008-04-02T21:00:00Z,28.4460,-96.3961,0.0,7.0,131.0,7.9,'11111222,11111222,11111222' 
TCOON,ioos:station:TCOON:057:1,2008-04-02T22:00:00Z,28.4460,-96.3961,0.0,7.4,123.0,8.6,'11111222,11111222,11111222' 
TCOON,ioos:station:TCOON:057:1,2008-04-02T23:00:00Z,28.4460,-96.3961,0.0,6.1,126.0,6.8,'11111222,11111222,11111222' 
TCOON,ioos:station:TCOON:057:1,2008-04-03T00:00:00Z,28.4460,-96.3961,0.0,6.7,123.0,7.7,'11111222,11111222,11111222' 
TCOON,ioos:station:TCOON:057:1,2008-04-03T01:00:00Z,28.4460,-96.3961,0.0,6.1,117.0,6.8,'11111222,11111222,11111222' 
TCOON,ioos:station:TCOON:057:1,2008-04-03T02:00:00Z,28.4460,-96.3961,0.0,5.3,118.0,6.8,'11111222,11111222,11111222' 
TCOON,ioos:station:TCOON:057:1,2008-04-03T03:00:00Z,28.4460,-96.3961,0.0,5.6,110.0,6.3,'11111222,11111222,11111222' 
TCOON,ioos:station:TCOON:057:1,2008-04-03T04:00:00Z,28.4460,-96.3961,0.0,6.4,111.0,7.2,'11111222,11111222,11111222' 
TCOON,ioos:station:TCOON:057:1,2008-04-03T05:00:00Z,28.4460,-96.3961,0.0,7.1,117.0,8.1,'11111222,11111222,11111222' 
TCOON,ioos:station:TCOON:057:1,2008-04-03T06:00:00Z,28.4460,-96.3961,0.0,6.4,124.0,7.4,'11111222,11111222,11111222' 
TCOON,ioos:station:TCOON:057:1,2008-04-03T07:00:00Z,28.4460,-96.3961,0.0,6.1,125.0,6.8,'11111222,11111222,11111222' 
TCOON,ioos:station:TCOON:057:1,2008-04-03T08:00:00Z,28.4460,-96.3961,0.0,6.1,128.0,6.8,'11111222,11111222,11111222' 
TCOON,ioos:station:TCOON:057:1,2008-04-03T09:00:00Z,28.4460,-96.3961,0.0,6.5,133.0,7.6,'11111222,11111222,11111222' 
TCOON,ioos:station:TCOON:057:1,2008-04-03T10:00:00Z,28.4460,-96.3961,0.0,6.9,127.0,8.3,'11111222,11111222,11111222' 
TCOON,ioos:station:TCOON:057:1,2008-04-03T11:00:00Z,28.4460,-96.3961,0.0,7.4,135.0,8.5,'11111222,11111222,11111222' 
TCOON,ioos:station:TCOON:057:1,2008-04-03T12:00:00Z,28.4460,-96.3961,0.0,6.8,142.0,7.5,'11111222,11111222,11111222' 
TCOON,ioos:station:TCOON:057:1,2008-04-03T13:00:00Z,28.4460,-96.3961,0.0,6.6,153.0,8.0,'11111222,11111222,11111222' 
TCOON,ioos:station:TCOON:057:1,2008-04-03T14:00:00Z,28.4460,-96.3961,0.0,7.9,157.0,9.4,'11111222,11111222,11111222' 
TCOON,ioos:station:TCOON:057:1,2008-04-03T15:00:00Z,28.4460,-96.3961,0.0,7.3,159.0,8.5,'11111222,11111222,11111222' 
TCOON,ioos:station:TCOON:057:1,2008-04-03T16:00:00Z,28.4460,-96.3961,0.0,7.5,162.0,8.8,'11111222,11111222,11111222' 
TCOON,ioos:station:TCOON:057:1,2008-04-03T17:00:00Z,28.4460,-96.3961,0.0,8.0,168.0,9.3,'11111222,11111222,11111222' 
TCOON,ioos:station:TCOON:057:1,2008-04-03T18:00:00Z,28.4460,-96.3961,0.0,8.9,161.0,10.4,'11111222,11111222,11111222' 
TCOON,ioos:station:TCOON:057:1,2008-04-03T19:00:00Z,28.4460,-96.3961,0.0,10.3,173.0,12.5,'11111222,11111222,11111222' 
TCOON,ioos:station:TCOON:057:1,2008-04-03T20:00:00Z,28.4460,-96.3961,0.0,8.9,175.0,10.6,'11111222,11111222,11111222' 
TCOON,ioos:station:TCOON:057:1,2008-04-03T21:00:00Z,28.4460,-96.3961,0.0,8.8,176.0,10.1,'11111222,11111222,11111222' 
TCOON,ioos:station:TCOON:057:1,2008-04-03T22:00:00Z,28.4460,-96.3961,0.0,8.2,166.0,9.5,'11111222,11111222,11111222' 
TCOON,ioos:station:TCOON:057:1,2008-04-03T23:00:00Z,28.4460,-96.3961,0.0,11.0,172.0,12.5,'11111222,11111222,11111222' 
TCOON,ioos:station:TCOON:057:1,2008-04-04T00:00:00Z,28.4460,-96.3961,0.0,9.2,167.0,10.6,'11111222,11111222,11111222' 
TCOON,ioos:station:TCOON:057:1,2008-04-04T01:00:00Z,28.4460,-96.3961,0.0,6.7,155.0,8.1,'11111222,11111222,11111222' 
TCOON,ioos:station:TCOON:057:1,2008-04-04T02:00:00Z,28.4460,-96.3961,0.0,6.7,153.0,7.5,'11111222,11111222,11111222' 
TCOON,ioos:station:TCOON:057:1,2008-04-04T03:00:00Z,28.4460,-96.3961,0.0,8.2,144.0,9.4,'11111222,11111222,11111222' 
TCOON,ioos:station:TCOON:057:1,2008-04-04T04:00:00Z,28.4460,-96.3961,0.0,8.5,135.0,9.6,'11111222,11111222,11111222' 
TCOON,ioos:station:TCOON:057:1,2008-04-04T05:00:00Z,28.4460,-96.3961,0.0,8.0,149.0,9.0,'11111222,11111222,11111222' 
TCOON,ioos:station:TCOON:057:1,2008-04-04T06:00:00Z,28.4460,-96.3961,0.0,6.2,155.0,7.3,'11111222,11111222,11111222' 
TCOON,ioos:station:TCOON:057:1,2008-04-04T07:00:00Z,28.4460,-96.3961,0.0,7.6,154.0,8.8,'11111222,11111222,11111222' 
TCOON,ioos:station:TCOON:057:1,2008-04-04T08:00:00Z,28.4460,-96.3961,0.0,7.9,164.0,8.7,'11111222,11111222,11111222' 
TCOON,ioos:station:TCOON:057:1,2008-04-04T09:00:00Z,28.4460,-96.3961,0.0,8.3,168.0,10.2,'11111222,11111222,11111222' 
TCOON,ioos:station:TCOON:057:1,2008-04-04T10:00:00Z,28.4460,-96.3961,0.0,8.5,170.0,9.4,'11111222,11111222,11111222' 
TCOON,ioos:station:TCOON:057:1,2008-04-04T11:00:00Z,28.4460,-96.3961,0.0,8.4,167.0,10.2,'11111222,11111222,11111222' 
TCOON,ioos:station:TCOON:057:1,2008-04-04T12:00:00Z,28.4460,-96.3961,0.0,8.2,163.0,9.7,'11111222,11111222,11111222' 
TCOON,ioos:station:TCOON:057:1,2008-04-04T13:00:00Z,28.4460,-96.3961,0.0,4.2,166.0,4.9,'11111222,11111222,11111222' 
TCOON,ioos:station:TCOON:057:1,2008-04-04T14:00:00Z,28.4460,-96.3961,0.0,2.8,178.0,3.3,'11111222,11111222,11111222' 
TCOON,ioos:station:TCOON:057:1,2008-04-04T15:00:00Z,28.4460,-96.3961,0.0,4.9,158.0,5.8,'11111222,11111222,11111222' 
TCOON,ioos:station:TCOON:057:1,2008-04-04T16:00:00Z,28.4460,-96.3961,0.0,4.7,155.0,5.1,'11111222,11111222,11111222' 
TCOON,ioos:station:TCOON:057:1,2008-04-04T17:00:00Z,28.4460,-96.3961,0.0,6.1,157.0,7.1,'11111222,11111222,11111222' 
TCOON,ioos:station:TCOON:057:1,2008-04-04T18:00:00Z,28.4460,-96.3961,0.0,5.7,152.0,6.9,'11111222,11111222,11111222' 
TCOON,ioos:station:TCOON:057:1,2008-04-04T19:00:00Z,28.4460,-96.3961,0.0,6.4,142.0,7.1,'11111222,11111222,11111222' 
TCOON,ioos:station:TCOON:057:1,2008-04-04T20:00:00Z,28.4460,-96.3961,0.0,6.1,151.0,7.3,'11111222,11111222,11111222' 
TCOON,ioos:station:TCOON:057:1,2008-04-04T21:00:00Z,28.4460,-96.3961,0.0,11.8,5.0,14.4,'11111222,11111222,11111222' 
TCOON,ioos:station:TCOON:057:1,2008-04-04T22:00:00Z,28.4460,-96.3961,0.0,12.3,8.0,14.4,'11111222,11111222,11111222' 
TCOON,ioos:station:TCOON:057:1,2008-04-04T23:00:00Z,28.4460,-96.3961,0.0,13.7,3.0,15.6,'11111222,11111222,11111222' 
TCOON,ioos:station:TCOON:057:1,2008-04-05T00:00:00Z,28.4460,-96.3961,0.0,12.1,3.0,14.9,'11111222,11111222,11111222' 
TCOON,ioos:station:TCOON:057:1,2008-04-05T01:00:00Z,28.4460,-96.3961,0.0,12.2,4.0,14.0,'11111222,11111222,11111222' 
TCOON,ioos:station:TCOON:057:1,2008-04-05T02:00:00Z,28.4460,-96.3961,0.0,13.0,4.0,14.9,'11111222,11111222,11111222' 
TCOON,ioos:station:TCOON:057:1,2008-04-05T03:00:00Z,28.4460,-96.3961,0.0,12.0,353.0,15.0,'11111222,11111222,11111222' 
TCOON,ioos:station:TCOON:057:1,2008-04-05T04:00:00Z,28.4460,-96.3961,0.0,12.5,6.0,14.3,'11111222,11111222,11111222' 
TCOON,ioos:station:TCOON:057:1,2008-04-05T05:00:00Z,28.4460,-96.3961,0.0,11.6,13.0,13.8,'11111222,11111222,11111222' 
TCOON,ioos:station:TCOON:057:1,2008-04-05T06:00:00Z,28.4460,-96.3961,0.0,10.7,14.0,12.2,'11111222,11111222,11111222' 
TCOON,ioos:station:TCOON:057:1,2008-04-05T07:00:00Z,28.4460,-96.3961,0.0,11.3,26.0,13.2,'11111222,11111222,11111222' 
TCOON,ioos:station:TCOON:057:1,2008-04-05T08:00:00Z,28.4460,-96.3961,0.0,9.8,24.0,11.6,'11111222,11111222,11111222' 
TCOON,ioos:station:TCOON:057:1,2008-04-05T09:00:00Z,28.4460,-96.3961,0.0,9.4,16.0,11.1,'11111222,11111222,11111222' 
TCOON,ioos:station:TCOON:057:1,2008-04-05T10:00:00Z,28.4460,-96.3961,0.0,9.2,14.0,11.2,'11111222,11111222,11111222' 
TCOON,ioos:station:TCOON:057:1,2008-04-05T11:00:00Z,28.4460,-96.3961,0.0,8.2,30.0,9.7,'11111222,11111222,11111222' 
TCOON,ioos:station:TCOON:057:1,2008-04-05T12:00:00Z,28.4460,-96.3961,0.0,7.3,24.0,8.8,'11111222,11111222,11111222' 
TCOON,ioos:station:TCOON:057:1,2008-04-05T13:00:00Z,28.4460,-96.3961,0.0,7.9,27.0,9.0,'11111222,11111222,11111222' 
TCOON,ioos:station:TCOON:057:1,2008-04-05T14:00:00Z,28.4460,-96.3961,0.0,5.9,23.0,6.8,'11111222,11111222,11111222' 
TCOON,ioos:station:TCOON:057:1,2008-04-05T15:00:00Z,28.4460,-96.3961,0.0,7.0,10.0,7.7,'11111222,11111222,11111222' 
TCOON,ioos:station:TCOON:057:1,2008-04-05T16:00:00Z,28.4460,-96.3961,0.0,7.8,3.0,8.6,'11111222,11111222,11111222' 
TCOON,ioos:station:TCOON:057:1,2008-04-05T17:00:00Z,28.4460,-96.3961,0.0,6.3,2.0,7.9,'11111222,11111222,11111222' 
TCOON,ioos:station:TCOON:057:1,2008-04-05T18:00:00Z,28.4460,-96.3961,0.0,4.1,9.0,4.9,'11111222,11111222,11111222' 
TCOON,ioos:station:TCOON:057:1,2008-04-05T19:00:00Z,28.4460,-96.3961,0.0,4.2,48.0,5.1,'11111222,11111222,11111222' 
TCOON,ioos:station:TCOON:057:1,2008-04-05T20:00:00Z,28.4460,-96.3961,0.0,4.2,52.0,5.2,'11111222,11111222,11111222' 
TCOON,ioos:station:TCOON:057:1,2008-04-05T21:00:00Z,28.4460,-96.3961,0.0,5.5,121.0,6.4,'11111222,11111222,11111222' 
TCOON,ioos:station:TCOON:057:1,2008-04-05T22:00:00Z,28.4460,-96.3961,0.0,5.2,132.0,6.2,'11111222,11111222,11111222' 
TCOON,ioos:station:TCOON:057:1,2008-04-05T23:00:00Z,28.4460,-96.3961,0.0,6.7,139.0,7.6,'11111222,11111222,11111222' 
TCOON,ioos:station:TCOON:057:1,2008-04-06T00:00:00Z,28.4460,-96.3961,0.0,6.6,134.0,7.6,'11111222,11111222,11111222' 
TCOON,ioos:station:TCOON:057:1,2008-04-06T01:00:00Z,28.4460,-96.3961,0.0,7.1,129.0,8.2,'11111222,11111222,11111222' 
TCOON,ioos:station:TCOON:057:1,2008-04-06T02:00:00Z,28.4460,-96.3961,0.0,7.9,127.0,9.2,'11111222,11111222,11111222' 
TCOON,ioos:station:TCOON:057:1,2008-04-06T03:00:00Z,28.4460,-96.3961,0.0,7.8,119.0,9.3,'11111222,11111222,11111222' 
TCOON,ioos:station:TCOON:057:1,2008-04-06T04:00:00Z,28.4460,-96.3961,0.0,7.4,124.0,8.7,'11111222,11111222,11111222' 
TCOON,ioos:station:TCOON:057:1,2008-04-06T05:00:00Z,28.4460,-96.3961,0.0,4.8,138.0,5.4,'11111222,11111222,11111222' 
TCOON,ioos:station:TCOON:057:1,2008-04-06T06:00:00Z,28.4460,-96.3961,0.0,4.4,124.0,5.1,'11111222,11111222,11111222' 
TCOON,ioos:station:TCOON:057:1,2008-04-06T07:00:00Z,28.4460,-96.3961,0.0,4.6,120.0,5.7,'11111222,11111222,11111222' 
TCOON,ioos:station:TCOON:057:1,2008-04-06T08:00:00Z,28.4460,-96.3961,0.0,4.7,119.0,5.5,'11111222,11111222,11111222' 
TCOON,ioos:station:TCOON:057:1,2008-04-06T09:00:00Z,28.4460,-96.3961,0.0,5.1,127.0,5.9,'11111222,11111222,11111222' 
TCOON,ioos:station:TCOON:057:1,2008-04-06T10:00:00Z,28.4460,-96.3961,0.0,5.3,122.0,6.0,'11111222,11111222,11111222' 
TCOON,ioos:station:TCOON:057:1,2008-04-06T11:00:00Z,28.4460,-96.3961,0.0,5.5,124.0,6.7,'11111222,11111222,11111222' 
TCOON,ioos:station:TCOON:057:1,2008-04-06T12:00:00Z,28.4460,-96.3961,0.0,6.6,136.0,7.6,'11111222,11111222,11111222' 
TCOON,ioos:station:TCOON:057:1,2008-04-06T13:00:00Z,28.4460,-96.3961,0.0,4.6,143.0,5.1,'11111222,11111222,11111222' 
TCOON,ioos:station:TCOON:057:1,2008-04-06T14:00:00Z,28.4460,-96.3961,0.0,4.0,131.0,4.6,'11111222,11111222,11111222' 
TCOON,ioos:station:TCOON:057:1,2008-04-06T15:00:00Z,28.4460,-96.3961,0.0,3.6,127.0,4.4,'11111222,11111222,11111222' 
TCOON,ioos:station:TCOON:057:1,2008-04-06T16:00:00Z,28.4460,-96.3961,0.0,3.7,109.0,4.3,'11111222,11111222,11111222' 
TCOON,ioos:station:TCOON:057:1,2008-04-06T17:00:00Z,28.4460,-96.3961,0.0,2.1,119.0,2.9,'11111222,11111222,11111222' 
TCOON,ioos:station:TCOON:057:1,2008-04-06T18:00:00Z,28.4460,-96.3961,0.0,2.4,132.0,2.7,'11111222,11111222,11111222' 
TCOON,ioos:station:TCOON:057:1,2008-04-06T19:00:00Z,28.4460,-96.3961,0.0,3.5,152.0,4.4,'11111222,11111222,11111222' 
TCOON,ioos:station:TCOON:057:1,2008-04-06T20:00:00Z,28.4460,-96.3961,0.0,3.4,146.0,4.0,'11111222,11111222,11111222' 
TCOON,ioos:station:TCOON:057:1,2008-04-06T21:00:00Z,28.4460,-96.3961,0.0,4.6,138.0,5.6,'11111222,11111222,11111222' 
TCOON,ioos:station:TCOON:057:1,2008-04-06T22:00:00Z,28.4460,-96.3961,0.0,5.3,122.0,6.1,'11111222,11111222,11111222' 
TCOON,ioos:station:TCOON:057:1,2008-04-06T23:00:00Z,28.4460,-96.3961,0.0,6.0,118.0,7.3,'11111222,11111222,11111222' 
TCOON,ioos:station:TCOON:057:1,2008-04-07T00:00:00Z,28.4460,-96.3961,0.0,8.2,119.0,9.4,'11111222,11111222,11111222' 
TCOON,ioos:station:TCOON:057:1,2008-04-07T01:00:00Z,28.4460,-96.3961,0.0,8.0,114.0,9.0,'11111222,11111222,11111222' 
TCOON,ioos:station:TCOON:057:1,2008-04-07T02:00:00Z,28.4460,-96.3961,0.0,7.5,120.0,8.0,'11111222,11111222,11111222' 
TCOON,ioos:station:TCOON:057:1,2008-04-07T03:00:00Z,28.4460,-96.3961,0.0,7.2,112.0,8.2,'11111222,11111222,11111222' 
TCOON,ioos:station:TCOON:057:1,2008-04-07T04:00:00Z,28.4460,-96.3961,0.0,7.5,121.0,9.3,'11111222,11111222,11111222' 
TCOON,ioos:station:TCOON:057:1,2008-04-07T05:00:00Z,28.4460,-96.3961,0.0,6.8,124.0,7.7,'11111222,11111222,11111222' 
TCOON,ioos:station:TCOON:057:1,2008-04-07T06:00:00Z,28.4460,-96.3961,0.0,6.2,121.0,7.1,'11111222,11111222,11111222' 
TCOON,ioos:station:TCOON:057:1,2008-04-07T07:00:00Z,28.4460,-96.3961,0.0,4.6,131.0,5.3,'11111222,11111222,11111222' 
TCOON,ioos:station:TCOON:057:1,2008-04-07T08:00:00Z,28.4460,-96.3961,0.0,4.4,149.0,5.3,'11111222,11111222,11111222' 
TCOON,ioos:station:TCOON:057:1,2008-04-07T09:00:00Z,28.4460,-96.3961,0.0,3.9,164.0,4.2,'11111222,11111222,11111222' 
TCOON,ioos:station:TCOON:057:1,2008-04-07T10:00:00Z,28.4460,-96.3961,0.0,4.0,156.0,4.7,'11111222,11111222,11111222' 
TCOON,ioos:station:TCOON:057:1,2008-04-07T11:00:00Z,28.4460,-96.3961,0.0,4.4,161.0,5.0,'11111222,11111222,11111222' 
TCOON,ioos:station:TCOON:057:1,2008-04-07T12:00:00Z,28.4460,-96.3961,0.0,2.3,156.0,2.6,'11111222,11111222,11111222' 
TCOON,ioos:station:TCOON:057:1,2008-04-07T13:00:00Z,28.4460,-96.3961,0.0,2.4,174.0,3.0,'11111222,11111222,11111222' 
TCOON,ioos:station:TCOON:057:1,2008-04-07T14:00:00Z,28.4460,-96.3961,0.0,0.4,123.0,0.6,'11111222,11111222,11111222' 
TCOON,ioos:station:TCOON:057:1,2008-04-07T15:00:00Z,28.4460,-96.3961,0.0,1.6,149.0,1.9,'11111222,11111222,11111222' 
TCOON,ioos:station:TCOON:057:1,2008-04-07T16:00:00Z,28.4460,-96.3961,0.0,2.0,72.0,2.3,'11111222,11111222,11111222' 
TCOON,ioos:station:TCOON:057:1,2008-04-07T17:00:00Z,28.4460,-96.3961,0.0,2.5,113.0,3.0,'11111222,11111222,11111222' 
TCOON,ioos:station:TCOON:057:1,2008-04-07T18:00:00Z,28.4460,-96.3961,0.0,3.9,116.0,4.4,'11111222,11111222,11111222' 
TCOON,ioos:station:TCOON:057:1,2008-04-07T19:00:00Z,28.4460,-96.3961,0.0,4.7,131.0,5.7,'11111222,11111222,11111222' 
TCOON,ioos:station:TCOON:057:1,2008-04-07T20:00:00Z,28.4460,-96.3961,0.0,6.4,115.0,7.3,'11111222,11111222,11111222' 
TCOON,ioos:station:TCOON:057:1,2008-04-07T21:00:00Z,28.4460,-96.3961,0.0,7.9,116.0,9.5,'11111222,11111222,11111222' 
TCOON,ioos:station:TCOON:057:1,2008-04-07T22:00:00Z,28.4460,-96.3961,0.0,8.2,123.0,9.1,'11111222,11111222,11111222' 
TCOON,ioos:station:TCOON:057:1,2008-04-07T23:00:00Z,28.4460,-96.3961,0.0,10.1,108.0,11.7,'11111222,11111222,11111222' 
TCOON,ioos:station:TCOON:057:1,2008-04-08T00:00:00Z,28.4460,-96.3961,0.0,10.4,118.0,11.7,'11111222,11111222,11111222' 
TCOON,ioos:station:TCOON:057:1,2008-04-08T01:00:00Z,28.4460,-96.3961,0.0,10.5,117.0,12.8,'11111222,11111222,11111222' 
TCOON,ioos:station:TCOON:057:1,2008-04-08T02:00:00Z,28.4460,-96.3961,0.0,9.7,117.0,10.9,'11111222,11111222,11111222' 
TCOON,ioos:station:TCOON:057:1,2008-04-08T03:00:00Z,28.4460,-96.3961,0.0,9.8,124.0,11.8,'11111222,11111222,11111222' 
TCOON,ioos:station:TCOON:057:1,2008-04-08T04:00:00Z,28.4460,-96.3961,0.0,9.9,129.0,11.8,'11111222,11111222,11111222' 
TCOON,ioos:station:TCOON:057:1,2008-04-08T05:00:00Z,28.4460,-96.3961,0.0,10.9,144.0,12.2,'11111222,11111222,11111222' 
TCOON,ioos:station:TCOON:057:1,2008-04-08T06:00:00Z,28.4460,-96.3961,0.0,6.6,154.0,7.6,'11111222,11111222,11111222' 
TCOON,ioos:station:TCOON:057:1,2008-04-08T07:00:00Z,28.4460,-96.3961,0.0,6.3,145.0,6.9,'11111222,11111222,11111222' 
TCOON,ioos:station:TCOON:057:1,2008-04-08T08:00:00Z,28.4460,-96.3961,0.0,4.8,143.0,5.8,'11111222,11111222,11111222' 
TCOON,ioos:station:TCOON:057:1,2008-04-08T09:00:00Z,28.4460,-96.3961,0.0,4.9,145.0,5.4,'11111222,11111222,11111222' 
TCOON,ioos:station:TCOON:057:1,2008-04-08T10:00:00Z,28.4460,-96.3961,0.0,5.1,150.0,5.8,'11111222,11111222,11111222' 
TCOON,ioos:station:TCOON:057:1,2008-04-08T11:00:00Z,28.4460,-96.3961,0.0,5.5,150.0,6.2,'11111222,11111222,11111222' 
TCOON,ioos:station:TCOON:057:1,2008-04-08T12:00:00Z,28.4460,-96.3961,0.0,4.7,147.0,5.3,'11111222,11111222,11111222' 
TCOON,ioos:station:TCOON:057:1,2008-04-08T13:00:00Z,28.4460,-96.3961,0.0,4.6,144.0,5.4,'11111222,11111222,11111222' 
TCOON,ioos:station:TCOON:057:1,2008-04-08T14:00:00Z,28.4460,-96.3961,0.0,5.5,151.0,6.2,'11111222,11111222,11111222' 
TCOON,ioos:station:TCOON:057:1,2008-04-08T15:00:00Z,28.4460,-96.3961,0.0,5.7,149.0,6.9,'11111222,11111222,11111222' 
TCOON,ioos:station:TCOON:057:1,2008-04-08T16:00:00Z,28.4460,-96.3961,0.0,5.0,147.0,5.8,'11111222,11111222,11111222' 
TCOON,ioos:station:TCOON:057:1,2008-04-08T17:00:00Z,28.4460,-96.3961,0.0,6.3,147.0,7.3,'11111222,11111222,11111222' 
TCOON,ioos:station:TCOON:057:1,2008-04-08T18:00:00Z,28.4460,-96.3961,0.0,5.8,146.0,6.6,'11111222,11111222,11111222' 
TCOON,ioos:station:TCOON:057:1,2008-04-08T19:00:00Z,28.4460,-96.3961,0.0,7.2,134.0,9.0,'11111222,11111222,11111222' 
TCOON,ioos:station:TCOON:057:1,2008-04-08T20:00:00Z,28.4460,-96.3961,0.0,7.6,128.0,8.7,'11111222,11111222,11111222' 
TCOON,ioos:station:TCOON:057:1,2008-04-08T21:00:00Z,28.4460,-96.3961,0.0,7.8,120.0,9.5,'11111222,11111222,11111222' 
TCOON,ioos:station:TCOON:057:1,2008-04-08T22:00:00Z,28.4460,-96.3961,0.0,7.6,106.0,9.3,'11111222,11111222,11111222' 
TCOON,ioos:station:TCOON:057:1,2008-04-08T23:00:00Z,28.4460,-96.3961,0.0,9.1,113.0,11.0,'11111222,11111222,11111222' 
TCOON,ioos:station:TCOON:057:1,2008-04-09T00:00:00Z,28.4460,-96.3961,0.0,9.3,114.0,11.2,'11111222,11111222,11111222' 
TCOON,ioos:station:TCOON:057:1,2008-04-09T01:00:00Z,28.4460,-96.3961,0.0,10.1,114.0,11.9,'11111222,11111222,11111222' 
TCOON,ioos:station:TCOON:057:1,2008-04-09T02:00:00Z,28.4460,-96.3961,0.0,8.7,122.0,10.1,'11111222,11111222,11111222' 
TCOON,ioos:station:TCOON:057:1,2008-04-09T03:00:00Z,28.4460,-96.3961,0.0,8.8,120.0,10.7,'11111222,11111222,11111222' 
TCOON,ioos:station:TCOON:057:1,2008-04-09T04:00:00Z,28.4460,-96.3961,0.0,8.6,115.0,9.4,'11111222,11111222,11111222' 
TCOON,ioos:station:TCOON:057:1,2008-04-09T05:00:00Z,28.4460,-96.3961,0.0,7.7,122.0,9.1,'11111222,11111222,11111222' 
TCOON,ioos:station:TCOON:057:1,2008-04-09T06:00:00Z,28.4460,-96.3961,0.0,6.4,125.0,7.5,'11111222,11111222,11111222' 
TCOON,ioos:station:TCOON:057:1,2008-04-09T07:00:00Z,28.4460,-96.3961,0.0,6.5,116.0,7.6,'11111222,11111222,11111222' 
TCOON,ioos:station:TCOON:057:1,2008-04-09T08:00:00Z,28.4460,-96.3961,0.0,8.1,117.0,9.2,'11111222,11111222,11111222' 
TCOON,ioos:station:TCOON:057:1,2008-04-09T09:00:00Z,28.4460,-96.3961,0.0,6.5,130.0,7.8,'11111222,11111222,11111222' 
TCOON,ioos:station:TCOON:057:1,2008-04-09T10:00:00Z,28.4460,-96.3961,0.0,8.1,125.0,9.1,'11111222,11111222,11111222' 
TCOON,ioos:station:TCOON:057:1,2008-04-09T11:00:00Z,28.4460,-96.3961,0.0,7.5,123.0,8.6,'11111222,11111222,11111222' 
TCOON,ioos:station:TCOON:057:1,2008-04-09T12:00:00Z,28.4460,-96.3961,0.0,7.0,123.0,7.8,'11111222,11111222,11111222' 
TCOON,ioos:station:TCOON:057:1,2008-04-09T13:00:00Z,28.4460,-96.3961,0.0,7.0,109.0,8.2,'11111222,11111222,11111222' 